Regional Weather Roundup
Issued by NWS

Home | Current Version | Previous Version | Text Only | Print | Product List | Glossary On
Versions: 1 2 3 4 5 6 7 8 9 10 11 12 13 14 15 16 17 18 19 20 21 22 23 24 25 26 27 28 29 30 31 32 33 34 35 36 37 38 39 40 41 42 43 44 45 46 47 48 49 50
000
ASUS44 KEWX 302311
RWRTX
SOUTH TEXAS REGIONAL WEATHER ROUNDUP
NATIONAL WEATHER SERVICE AUSTIN/SAN ANTONIO TX
600 PM CDT SAT JUL 30 2016

NOTE: "FAIR" INDICATED FEW OR NO CLOUDS BELOW 12,000 FEET WITH NO
SIGNIFICANT WEATHER AND/OR OBSTRUCTIONS TO VISIBILITY.

* - THESE STATIONS ARE NOT NWS OR FAA STATIONS...AND ARE NOT SUBJECT
    TO NWS AND FAA QUALITY CONTROL.

TXZ171-172-183>190-310000-
TEXAS HILL COUNTRY AND EDWARDS PLATEAU

CITY           SKY/WX    TMP DP  RH WIND       PRES   REMARKS
JUNCTION       SUNNY     95  61  32 S10       29.95F HX  95
*LLANO         SUNNY     99  63  30 S9G17     29.95F HX 100
BURNET         SUNNY     95  63  34 S10G20    29.97F HX  96
*HORSESHOE BAY SUNNY     95  63  34 S10       29.94F HX  96
*KERRVILLE     MOSUNNY   93  68  42 S10       29.98F HX  97
*FREDERICKSBRG SUNNY     93  59  32 S15       29.97F HX  92
*ROCKSPRINGS   SUNNY     91  64  40 S10       30.02F HX  93
*BOERNE STAGE  SUNNY     90  63  40 S12       29.99S HX  90
*CASTROVILLE   SUNNY     96  62  32 SE9       29.95S HX  97
HONDO          SUNNY     94  67  41 SE13      29.95F HX  97
*UVALDE        MOSUNNY   94  66  39 SE7       29.92F HX  96
DEL RIO        MOSUNNY   98  63  31 SE15      29.88F HX 100
LAUGHLIN AFB   MOSUNNY   97  66  36 SE17G24   29.89F HX 101
CARRIZO SPRGS  MOSUNNY   99  61  28 S10G18    29.88F HX  99
*EAGLE PASS    PTCLDY    99  64  32 SE13G24   29.89F HX 101
$$

TXZ173-191>194-202-209-217>225-228-310000-
CENTRAL AND SOUTH CENTRAL TEXAS

CITY           SKY/WX    TMP DP  RH WIND       PRES   REMARKS
GEORGETOWN     NOT AVBL
AUSTIN/BERGSTM MOSUNNY   95  69  42 S8G18     29.93F HX 100
AUSTIN/MABRY   MOSUNNY   95  69  42 S9G17     29.95F HX 100
*AUSTIN/EXEC     N/A     95  68  41 S7        29.95S HX  99
*LAGO VISTA    SUNNY     95  64  35 SE10      29.97F HX  96
SAN MARCOS     MOSUNNY   91  70  49 SE12      29.96F HX  97
NEW BRAUNFELS  MOSUNNY   95  69  42 VRB3      29.93F HX 100
RANDOLPH AFB   MOSUNNY   94  69  44 SE10      29.94F HX  99
PT SAN ANTONIO SUNNY     95  67  39 SE9       29.92F HX  98
SAN ANTONIO    MOSUNNY   95  64  35 S10G20    29.95F HX  97
STINSON FIELD  SUNNY     97  66  36 SE8       29.91F HX 100
*PLEASANTON    SUNNY     98  63  31 S3        29.91F HX  99
*LA GRANGE       N/A     96  72  44 S6        29.92F HAZE    HX 105
*GIDDINGS      MOSUNNY   93  69  44 S7        29.98S HX  98
*GONZALES      SUNNY     98  69  38 S5        29.92S HX 105
$$

TXZ163>164-176>182-195>201-210>213-226-227-235-310000-
SOUTHEAST TEXAS

CITY           SKY/WX    TMP DP  RH WIND       PRES   REMARKS
COLLEGE STN    SUNNY     95  71  45 S14       29.93F HX 102
*BRYAN         MOSUNNY   95  71  45 S8        29.94F HX 102
*CALDWELL      SUNNY     93  64  38 CALM      29.96F HX  95
*CROCKETT      SUNNY     93  68  43 S8        29.97F HX  97
*BRENHAM       MOSUNNY   96  69  41 S8        29.95S HX 101
HUNTSVILLE     SUNNY     94  67  41 S7        29.95F HX  97
CONROE         MOSUNNY   95  68  41 S10       29.95F HX  99
HOUSTON BUSH   CLOUDY    87  68  52 S10       29.96S HX  90
HOUSTON HOBBY  CLOUDY    84  76  76 SE7       29.95F HX  93
*HOUSTON SW AP CLOUDY    85  78  77 SE5       29.96F HX  97
PEARLAND       CLOUDY    87  77  72 CALM      29.97F HX  99
HOUSTON HOOKS  CLOUDY    89  75  63 SE10G18   29.95F HX  99
ELLINGTON FLD  PTSUNNY   81  75  83 SW5       29.96
SUGAR LAND     CLOUDY    83  72  69 SW5       29.95F
*HOUSTON EXEC  CLOUDY    86  79  79 SW6       29.96S HX  99
*CLEVELAND MUN CLOUDY    89  79  73 CALM      29.96F HX 104
*WHARTON         N/A     94  73  50 S10         N/A  HX 103
*COLUMBUS      CLOUDY    88  77  70 SE9       29.94S HX  99
*EAGLE LAKE    CLEAR     92  75  57 S13       29.94F HX 102
$$

TXZ214>216-236>238-310000-
THE UPPER TEXAS COAST

CITY           SKY/WX    TMP DP  RH WIND       PRES   REMARKS
*ORANGE        SUNNY     90  72  56 S7        29.99S HX  97
PORT ARTHUR    SUNNY     89  77  67 S9        29.96F HX 101
GALVESTON      SUNNY     88  77  69 S13       29.99F HX 100
ANGLETON       SUNNY     92  76  59 S14       29.97S HX 104
*BAY CITY      MOSUNNY   92  76  60 S13       29.97S HX 104
PALACIOS       SUNNY     89  76  65 S13G20    29.97S HX 100
$$

TXZ229>234-239>247-310000-
TEXAS COASTAL BEND AND RIO GRANDE PLAINS

CITY           SKY/WX    TMP DP  RH WIND       PRES   REMARKS
VICTORIA       SUNNY     93  71  48 SE20      29.94F HX 100
*BEEVILLE      PTSUNNY   86  78  75 SW7       29.94S HX  98
ROCKPORT       SUNNY     90  76  63 SE17      29.95S HX 101
*PORT ARANSAS  SUNNY     89  79  71 SE14      29.96S HX 103
*PORT LAVACA   SUNNY     90  77  66 S15       29.96S HX 102
*INGLESIDE     SUNNY     92  76  61 SE18      29.95S HX 104
CORPUS CHRISTI MOSUNNY   91  74  57 SE17G24   29.94S HX 100
CORPUS NAS       N/A    N/A N/A N/A MISG      29.94F
*ROBSTOWN      SUNNY     92  73  53 SE18      29.94S HX 101
ALICE          MOSUNNY   93  72  50 SE18G28   29.91S HX 101
KINGSVILLE NAS PTSUNNY   90  78  68 SE17G25   29.92F HX 104
COTULLA        MOSUNNY   99  62  29 SE12      29.89F HX 100
*FAITH RANCH   SUNNY    100  61  27 S13       29.89F HX 101
LAREDO         NOT AVBL
$$

TXZ248>255-310000-
DEEP SOUTH TEXAS

CITY           SKY/WX    TMP DP  RH WIND       PRES   REMARKS
BROWNSVILLE    MOSUNNY   92  74  55 SE24      29.94F HX 101
PORT ISABEL    SUNNY     91  74  57 SE20G26   29.94F HX 100
*SOUTH PADRE     N/A     90  77  66 SE13      29.95S HX 102
HARLINGEN      SUNNY     94  70  45 SE21G31   29.91F HX 100
*HEBBRONVILLE  SUNNY     97  65  33 SE20G30   29.92S HX 100
MCALLEN        MOSUNNY  100  68  35 SE20      29.90S HX 105
*WESLACO       MOSUNNY   92  12   5 SE14G24   29.90S
FALFURRIAS     MOSUNNY   95  71  44 SE13      29.91S HX 102
EDINBURG       MOSUNNY   97  63  32 SE16      29.90S HX  99
*ZAPATA        SUNNY     94  65  37 SE10G17   29.88S HX  97
$$

TXZ213>215-236>238-242>244-246-247-251-254-255-310000-
CMAN STATIONS

STATION/POSITION TIME  TEMP    WIND        PRES    WAVE
                       AIR SEA DIR/SP/G            HT/PER
                 (UTC) (F)     (DEG/KT/KT) (MB)    (FT/S)
SABINE PASS      2200   89 90                N/A
SEA RIM ST PARK  2300   87     200/  9/ 10 1015.6
NORTH JETTY/GLS  2200   87 90                N/A
MORGANS POINT    2200   89 88                N/A
MISSION/ARANSAS  2200   87                 1015.0
PORT ARANSAS     2300   85 90  140/ 14/ 15 1014.7
MALAQUITE BEACH  2200   85 87                N/A
BAFFIN BAY       2200   86 92                N/A
PORT ISABEL      2200   87 84                N/A
$$

GMZ080-GMZ150>470-310000-
OFFSHORE BUOY REPORTS

STATION/POSITION TIME  TEMP    WIND        PRES    WAVE
                       AIR SEA DIR/SP/G            HT/PER
                 (UTC) (F)     (DEG/KT/KT) (MB)    (FT/S)
20 E GALVESTON   2250   86 90  200/ 10/ 12 1015.1    2/ 7
90 E PT ARANSAS  2250   86 87  160/  8/ 12 1015.2    2/ 8
35 NE PT MANSFLD 2250   85 86  160/ 14/ 16 1014.0    2/ 4
200 E PT ISABEL  2250   86 88  150/  4/  4 1014.7    2/ 5
$$




USA.gov is the U.S. government's official web portal to all federal, state and local government web resources and services.